Location: Epalinges
(46.5518°N, 6.6683°E)
Time: 15:06:57
(UTC+00:00)

Resurs 1-4 Rocket - Pass Details

Date: 20 June 2021
Orbit: 800 x 813 km, 98.6° (Epoch: 31 July)

Event Time Altitude Azimuth Distance (km) Brightness Sun altitude
Rises 01:13:24 0° 14° (NNE) 3,344 7.0 -16.5°
Reaches altitude 10° 01:15:45 10° 15° (NNE) 2,409 5.9 -16.4°
Maximum altitude 01:21:06 86° 106° (ESE) 821 2.1 -16.0°
Enters shadow 01:24:24 24° 193° (SSW) 1,621 3.1 -15.8°
